Location: Newark
(44.4156°N, 12.1972°E)
Time: 00:15:42
(UTC+00:00)

STARLINK-1122 - Pass Details

Date: 29 January 2020
Orbit: 349 x 350 km, 53.0° (Epoch: 17 February)

Event Time Altitude Azimuth Distance (km) Brightness Sun altitude
Rises 17:39:10 0° 306° (NW) 2,180 7.4 -15.0°
Reaches altitude 10° 17:41:16 10° 314° (NW) 1,334 6.1 -15.4°
Maximum altitude 17:44:06 40° 27° (NNE) 545 3.3 -15.9°
Enters shadow 17:44:17 39° 38° (NE) 551 3.3 -15.9°
